sat.trackr.live / text

‹ back to catalog

STARLINK-37305

NORAD 68713 · 2026-081Q

PAYLOAD ACTIVE UNKNOWN

§ Identity

Operator
Country
US
Launch date
2026-04-14
Launch site
AFETR
Launch vehicle
Mass (kg)
RCS (m²)

Purposes: comms

External: N2YO · Heavens-Above · Gunter

§ Orbital elements

Epoch: 2026-09-20T03:28:21.279936Z

Period
93.85 min
Inclination
53.1570°
Eccentricity
0.0001904
Mean motion
15.34409304 rev/d
Perigee alt
461.4 km
Apogee alt
464.0 km
Semi-major
6,840.8 km
B*
4.8488e-4
RAAN
207.3970°
Arg perigee
89.5855°
Mean anomaly
270.5365°
Rev number
2,456

§ Raw data

STARLINK-373051 68713U 26081Q   26263.14469074  .00016046  00000+0  48488-3 0  99972 68713  53.1570 207.3970 0001904  89.5855 270.5365 15.34409304 24568

JSON: /api/v1/satellites/68713 · /tle

For live sub-satellite position, see the globe view (requires WebGL).

§ Visibility from observer

Set your observer location to see the next 7 days of passes ≥ 10°. The values pass through the URL so the page stays shareable.

No JS? Fill the form by hand. The geolocation button needs JavaScript.